Weather History for FBSK - June, 2013

Change the Weather History Date:

Sunday, June 16, 2013

  Actual Average Record
Temperature  
Mean Temperature 50 °F -  
Max Temperature 66 °F 70 °F 80 °F (1998)
Min Temperature 33 °F 39 °F 33 °F (2013)
Degree Days  
Heating Degree Days 16    
Moisture  
Dew Point 32 °F    
Average Humidity 50    
Maximum Humidity 76    
Minimum Humidity 27    
Precipitation  
Precipitation 0.00 in - - ()
Sea Level Pressure  
Sea Level Pressure 30.39 in    
Wind  
Wind Speed 6 mph ()    
Max Wind Speed 17 mph    
Max Gust Speed -    
Visibility 6.2 miles    
Events      
Averages and records for this station are not official NWS values.
T = Trace of Precipitation, MM = Missing Value Source: Averaged Metar Reports

Daily Weather History Graph

Daily Weather History Graph

Search for Another Location

Airport or City:

Trip Planner

Search our weather history database for the weather conditions in past years. The results will help you decide how hot, cold, wet, or windy it might be!

Date:

Astronomy

Jun. 16, 2013 Rise Set
Actual Time 6:58 AM CAT 5:35 PM CAT
Civil Twilight 6:33 AM CAT 6:00 PM CAT
Nautical Twilight 6:05 AM CAT 6:28 PM CAT
Astronomical Twilight 5:37 AM CAT 6:56 PM CAT
Moon 11:59 AM CAT (6/16) No Moon Set
Length of Visible Light 11h 27m
Length of Day
10h 37m
Waxing Crescent, 47% of the Moon is Illuminated
Jun 16
Waxing Crescent
Jun 16
First Quarter
Jun 23
Full
Jun 30
Last Quarter
Jul 8
New

Hourly Weather History & Observations

Time (CAT) Temp. Windchill Dew Point Humidity Pressure Visibility Wind Dir Wind Speed Gust Speed Precip Events Conditions
12:00 AM 41.0 °F 38.0 °F 15.8 °F 36% 30.30 in - NNW 4.6 mph - N/A   Clear
1:00 AM 37.4 °F 33.8 °F 15.8 °F 41% 30.30 in - WNW 4.6 mph - N/A   Clear
3:00 AM 35.6 °F 31.7 °F 15.8 °F 44% 30.30 in - SW 4.6 mph - N/A   Clear
4:00 AM 33.8 °F - 15.8 °F 48% 30.33 in - Variable 1.2 mph - N/A   Clear
5:00 AM 37.4 °F - 17.6 °F 45% 30.33 in - Variable 1.2 mph - N/A   Clear
6:00 AM 35.6 °F - 15.8 °F 44% 30.36 in - Variable 2.3 mph - N/A   Clear
7:00 AM 33.8 °F - 19.4 °F 56% 30.39 in - Variable 1.2 mph - N/A   Clear
8:00 AM 42.8 °F - 19.4 °F 39% 30.42 in - Variable 1.2 mph - N/A   Clear
9:00 AM 53.6 °F - 23.0 °F 30% 30.42 in - ESE 8.1 mph - N/A   Clear
10:00 AM 57.2 °F - 23.0 °F 27% 30.45 in - ENE 15.0 mph - N/A   Clear
11:00 AM 60.8 °F - 41.0 °F 48% 30.45 in - ENE 11.5 mph - N/A   Clear
12:00 PM 62.6 °F - 44.6 °F 52% 30.42 in 6.2 mi ENE 17.3 mph - N/A   Partly Cloudy
1:00 PM 64.4 °F - 44.6 °F 49% 30.42 in 6.2 mi NE 13.8 mph - N/A   Partly Cloudy
2:00 PM 64.4 °F - 44.6 °F 49% 30.39 in 6.2 mi NE 12.7 mph - N/A   Partly Cloudy
3:00 PM 64.4 °F - 44.6 °F 49% 30.39 in 6.2 mi NE 9.2 mph - N/A   Partly Cloudy
4:00 PM 66.2 °F - 42.8 °F 43% 30.36 in - NE 10.4 mph - N/A   Clear
5:00 PM 64.4 °F - 44.6 °F 49% 30.39 in - East 10.4 mph - N/A   Clear
6:00 PM 60.8 °F - 44.6 °F 55% 30.42 in - East 5.8 mph - N/A   Clear
7:00 PM 57.2 °F - 42.8 °F 59% 30.42 in - East 6.9 mph - N/A   Clear
8:00 PM 55.4 °F - 42.8 °F 63% 30.45 in - East 3.5 mph - N/A   Clear
9:00 PM 51.8 °F - 42.8 °F 71% 30.45 in - ESE 5.8 mph - N/A   Clear
10:00 PM 50.0 °F - 42.8 °F 76% 30.45 in - SSE 6.9 mph - N/A   Clear
11:00 PM 50.0 °F - 41.0 °F 71% 30.45 in - SSE 9.2 mph - N/A   Clear